CW1767 Weather Reports


Display with metric or nautical units.
time (UTC)temp
F
wind
direction
speed
MPH
gust
MPH
rain 1hr
in
rain 24hr
in
rain mn
in
humidity
%
barometer
mb
20260508061540 45 183 0.0 0.0 0.00 0.17 0.00 92 1011.0
20260508060040 45 183 0.0 0.0 0.00 0.17 0.00 92 1010.9
20260508054540 45 183 0.0 0.0 0.00 0.32 0.00 92 1010.9
20260508053039 46 183 0.0 0.0 0.00 0.32 0.00 92 1010.9
20260508051540 46 183 0.0 0.0 0.00 0.32 0.00 92 1011.0
20260508050038 46 183 0.0 0.0 0.00 0.32 0.00 92 1011.1
20260508044535 46 183 0.0 0.0 0.00 0.32 0.00 92 1011.0
20260508043051 46 183 0.0 0.0 0.00 0.32 0.00 92 1010.9
20260508041536 47 183 0.0 0.0 0.00 0.32 0.00 92 1010.9
20260508040036 47 183 0.0 0.0 0.00 0.32 0.32 92 1010.9
20260508034530 47 183 0.0 0.0 0.00 0.32 0.32 91 1010.7
20260508033027 48 183 0.0 0.0 0.00 0.32 0.32 91 1010.6
20260508031526 48 183 0.0 0.0 0.00 0.32 0.32 91 1010.6
20260508030027 48 183 0.0 0.0 0.00 0.32 0.32 91 1010.5
20260508024523 49 183 0.0 0.0 0.00 0.32 0.32 91 1010.6
20260508023022 49 183 0.0 0.0 0.00 0.32 0.32 91 1010.8
20260508021519 50 183 0.0 0.0 0.00 0.32 0.32 91 1010.7
20260508020027 50 183 0.0 0.0 0.00 0.32 0.32 91 1010.7
20260508014520 50 183 0.0 0.0 0.00 0.32 0.32 91 1010.5
20260508013016 50 183 0.0 0.0 0.00 0.32 0.32 91 1010.3
20260508011516 51 183 0.0 0.0 0.00 0.32 0.32 91 1010.2
20260508010016 51 183 0.0 0.0 0.00 0.32 0.32 91 1009.9
20260508004514 51 183 0.0 0.0 0.00 0.32 0.32 90 1009.8
20260508003012 51 183 0.0 0.0 0.00 0.32 0.32 90 1009.6
20260508001528 52 183 0.0 0.0 0.00 0.32 0.32 90 1009.5
20260508000011 52 183 0.0 0.0 0.00 0.32 0.32 90 1009.3
20260507234514 52 183 0.0 0.0 0.00 0.32 0.32 90 1009.3
20260507233015 52 183 0.0 0.0 0.00 0.32 0.32 90 1009.1
20260507231509 52 183 0.0 0.0 0.00 0.32 0.32 90 1009.1
20260507230009 52 183 0.0 0.0 0.00 0.32 0.32 90 1009.0
20260507224509 52 183 0.0 0.0 0.02 0.32 0.32 90 1009.0
20260507223009 52 183 0.0 0.0 0.02 0.32 0.32 90 1009.3
20260507221507 52 183 0.0 0.0 0.04 0.32 0.32 89 1009.2
20260507220007 52 183 0.0 0.0 0.08 0.32 0.32 89 1008.8
20260507214505 52 183 0.0 0.0 0.07 0.30 0.30 89 1009.5
20260507213003 52 183 0.0 0.0 0.08 0.30 0.30 88 1009.1
20260507211502 53 183 0.0 0.0 0.09 0.28 0.28 87 1009.3
20260507210001 53 183 0.0 1.0 0.05 0.24 0.24 85 1009.8
20260507204501 54 183 0.0 1.0 0.04 0.23 0.23 84 1008.9
20260507203003 56 182 0.0 1.0 0.03 0.22 0.22 80 1009.3
20260507201601 57 123 0.0 0.0 0.00 0.19 0.19 78 1009.1
20260507200110 57 123 0.0 0.0 0.00 0.19 0.19 77 1009.0
20260507194600 57 123 0.0 0.0 0.00 0.19 0.19 76 1008.8
20260507193059 57 123 0.0 0.0 0.00 0.19 0.19 76 1009.1
20260507191659 58 123 0.0 0.0 0.00 0.19 0.19 75 1008.9
20260507190058 58 123 0.0 0.0 0.00 0.19 0.19 75 1009.1
20260507184605 58 123 0.0 1.0 0.00 0.19 0.19 75 1009.2
20260507183057 57 350 0.0 0.0 0.00 0.19 0.19 74 1009.5
20260507181604 57 350 0.0 0.0 0.00 0.19 0.19 74 1010.0
20260507180057 58 350 0.0 0.0 0.00 0.19 0.19 72 1010.1
20260507174604 58 350 0.0 0.0 0.00 0.21 0.19 72 1010.1
20260507173055 58 350 0.0 0.0 0.00 0.21 0.19 70 1009.9
20260507171602 58 350 0.0 0.0 0.00 0.21 0.19 71 1010.2
20260507170054 57 350 0.0 0.0 0.00 0.21 0.19 73 1010.2
20260507164554 57 350 0.0 1.0 0.00 0.23 0.19 72 1010.4
20260507163056 57 338 0.0 1.0 0.00 0.23 0.19 73 1010.9
20260507161553 57 338 0.0 1.0 0.00 0.23 0.19 72 1011.1
20260507160055 57 338 0.0 1.0 0.00 0.23 0.19 71 1011.1
20260507154552 57 348 0.0 1.0 0.00 0.24 0.19 70 1011.2
20260507153058 57 348 0.0 2.0 0.00 0.24 0.19 70 1011.3
20260507151550 57 338 0.0 1.0 0.00 0.24 0.19 70 1011.5
20260507150051 57 327 0.0 2.0 0.00 0.24 0.19 69 1011.3
20260507144550 57 275 0.0 3.0 0.00 0.24 0.19 69 1011.5
20260507143050 57 248 0.0 2.0 0.00 0.24 0.19 71 1011.3
20260507141647 57 257 0.0 3.0 0.00 0.24 0.19 73 1011.1
20260507140050 56 284 0.0 3.0 0.00 0.24 0.19 77 1011.2
20260507134550 55 247 0.0 3.0 0.00 0.24 0.19 78 1011.3
20260507133045 55 318 0.0 1.0 0.00 0.24 0.19 80 1011.1
20260507131556 55 259 0.0 1.0 0.00 0.24 0.19 81 1011.5
20260507130100 54 263 0.0 1.0 0.00 0.24 0.19 82 1011.3
20260507124551 54 263 0.0 1.0 0.00 0.24 0.19 81 1011.2
20260507123043 54 263 0.0 1.0 0.00 0.24 0.19 82 1011.7
20260507121541 53 290 0.0 1.0 0.00 0.24 0.19 82 1011.3
20260507120043 53 322 0.0 3.0 0.00 0.24 0.19 81 1011.5
20260507114538 54 204 0.0 2.0 0.00 0.24 0.19 85 1011.7
20260507113037 54 209 0.0 2.0 0.00 0.24 0.19 86 1011.4
20260507111535 54 205 0.0 2.0 0.00 0.24 0.19 86 1011.3
20260507110033 54 214 0.0 1.0 0.00 0.24 0.19 87 1010.6
20260507104532 54 215 0.0 1.0 0.00 0.24 0.19 88 1010.8
20260507103033 54 215 0.0 1.0 0.00 0.24 0.19 88 1010.8
20260507101530 55 254 0.0 2.0 0.00 0.24 0.19 88 1010.4
20260507100034 55 242 0.0 1.0 0.00 0.24 0.19 88 1010.3
20260507094526 55 239 0.0 3.0 0.00 0.24 0.19 88 1010.5
20260507093025 56 287 1.0 2.0 0.00 0.24 0.19 88 1010.2
20260507091522 56 250 1.0 3.0 0.01 0.24 0.19 89 1010.0
20260507090118 57 248 0.0 2.0 0.01 0.24 0.19 91 1009.7
20260507084517 58 209 0.0 2.0 0.01 0.24 0.19 91 1009.9
20260507083015 58 206 0.0 2.0 0.01 0.24 0.19 91 1009.7
20260507081527 59 202 0.0 3.0 0.00 0.23 0.18 90 1009.6
20260507080009 62 261 2.0 4.0 0.00 0.23 0.18 91 1009.0
20260507074519 63 192 0.0 1.0 0.01 0.23 0.18 92 1008.5
20260507073008 63 167 0.0 1.0 0.01 0.23 0.18 92 1008.2
20260507071508 63 150 0.0 0.0 0.02 0.23 0.18 92 1007.9
20260507070010 63 150 0.0 0.0 0.03 0.23 0.18 92 1007.5
20260507064507 63 150 0.0 0.0 0.07 0.22 0.17 92 1008.3
20260507063003 63 150 0.0 0.0 0.17 0.22 0.17 92 1008.3